Time,TemperatureF,DewpointF,PressureIn,WindDirection,WindDirectionDegrees,WindSpeedMPH,WindSpeedGustMPH,Humidity,HourlyPrecipIn,Conditions,Clouds,dailyrainin,SoftwareType,DateUTC
2014-10-02 00:05:00,70.2,57.0,29.82,SSE,148,0.0,-999.0,63,0.00,,,0.00,Wunderground v.1.15,2014-10-02 04:05:00,
2014-10-02 00:10:00,70.1,56.9,29.82,SE,146,0.0,-999.0,63,0.00,,,0.00,Wunderground v.1.15,2014-10-02 04:10:00,
2014-10-02 00:20:00,69.9,56.7,29.81,SSW,192,0.0,-999.0,63,0.00,,,0.00,Wunderground v.1.15,2014-10-02 04:20:00,
2014-10-02 00:25:00,69.9,56.7,29.81,SSE,155,0.0,-999.0,63,0.00,,,0.00,Wunderground v.1.15,2014-10-02 04:25:00,
2014-10-02 00:30:00,69.7,56.1,29.81,South,187,0.0,-999.0,62,0.00,,,0.00,Wunderground v.1.15,2014-10-02 04:30:00,
2014-10-02 00:35:00,69.5,55.9,29.82,South,182,0.0,-999.0,62,0.00,,,0.00,Wunderground v.1.15,2014-10-02 04:35:00,
2014-10-02 00:40:00,69.2,55.2,29.82,South,183,0.0,-999.0,61,0.00,,,0.00,Wunderground v.1.15,2014-10-02 04:40:00,
2014-10-02 00:50:00,68.7,54.3,29.82,South,183,0.0,-999.0,60,0.00,,,0.00,Wunderground v.1.15,2014-10-02 04:50:00,
2014-10-02 00:55:00,68.4,53.5,29.82,South,183,0.0,-999.0,59,0.00,,,0.00,Wunderground v.1.15,2014-10-02 04:55:00,
2014-10-02 01:05:00,68.1,52.8,29.82,SSE,157,0.0,-999.0,58,0.00,,,0.00,Wunderground v.1.15,2014-10-02 05:05:00,
2014-10-02 01:10:00,67.9,52.6,29.82,SSE,157,0.0,-999.0,58,0.00,,,0.00,Wunderground v.1.15,2014-10-02 05:10:00,
2014-10-02 01:15:00,67.8,52.0,29.82,SSE,157,0.0,-999.0,57,0.00,,,0.00,Wunderground v.1.15,2014-10-02 05:15:00,
2014-10-02 01:20:00,67.7,51.9,29.82,SSE,158,0.0,-999.0,57,0.00,,,0.00,Wunderground v.1.15,2014-10-02 05:20:00,
2014-10-02 01:25:00,67.7,51.4,29.82,SSE,159,0.0,-999.0,56,0.00,,,0.00,Wunderground v.1.15,2014-10-02 05:25:00,
2014-10-02 01:30:00,67.6,50.9,29.82,South,174,0.0,-999.0,55,0.00,,,0.00,Wunderground v.1.15,2014-10-02 05:30:00,
2014-10-02 01:35:00,67.4,50.7,29.82,South,169,0.0,-999.0,55,0.00,,,0.00,Wunderground v.1.15,2014-10-02 05:35:00,
2014-10-02 01:40:00,67.3,50.1,29.82,South,169,0.0,-999.0,54,0.00,,,0.00,Wunderground v.1.15,2014-10-02 05:40:00,
2014-10-02 01:45:00,67.3,50.1,29.82,South,173,0.0,-999.0,54,0.00,,,0.00,Wunderground v.1.15,2014-10-02 05:45:00,
2014-10-02 01:50:00,67.3,50.1,29.82,South,169,0.0,-999.0,54,0.00,,,0.00,Wunderground v.1.15,2014-10-02 05:50:00,
2014-10-02 02:00:00,67.3,49.6,29.82,South,184,0.0,-999.0,53,0.00,,,0.00,Wunderground v.1.15,2014-10-02 06:00:00,
2014-10-02 02:10:00,67.3,49.6,29.82,South,176,0.0,-999.0,53,0.00,,,0.00,Wunderground v.1.15,2014-10-02 06:10:00,
2014-10-02 02:15:00,67.2,49.0,29.82,SSW,193,0.0,-999.0,52,0.00,,,0.00,Wunderground v.1.15,2014-10-02 06:15:00,
2014-10-02 02:20:00,67.0,48.8,29.82,SSE,148,0.0,-999.0,52,0.00,,,0.00,Wunderground v.1.15,2014-10-02 06:20:00,
2014-10-02 02:25:00,67.0,48.3,29.82,SSE,148,0.0,-999.0,51,0.00,,,0.00,Wunderground v.1.15,2014-10-02 06:25:00,
2014-10-02 02:30:00,66.9,47.6,29.82,SSE,149,0.0,-999.0,50,0.00,,,0.00,Wunderground v.1.15,2014-10-02 06:30:00,
2014-10-02 02:35:00,66.8,47.6,29.82,SE,127,0.0,-999.0,50,0.00,,,0.00,Wunderground v.1.15,2014-10-02 06:35:00,
2014-10-02 02:40:00,66.7,46.9,29.82,SSE,158,0.0,-999.0,49,0.00,,,0.00,Wunderground v.1.15,2014-10-02 06:40:00,
2014-10-02 02:50:00,66.6,46.3,29.82,South,176,0.0,-999.0,48,0.00,,,0.00,Wunderground v.1.15,2014-10-02 06:50:00,
2014-10-02 02:55:00,66.6,45.7,29.82,SSE,162,0.0,-999.0,47,0.00,,,0.00,Wunderground v.1.15,2014-10-02 06:55:00,
2014-10-02 03:00:00,66.5,45.6,29.82,SSE,149,0.0,-999.0,47,0.00,,,0.00,Wunderground v.1.15,2014-10-02 07:00:00,
2014-10-02 03:10:00,66.3,44.3,29.82,SSW,192,0.0,-999.0,45,0.00,,,0.00,Wunderground v.1.15,2014-10-02 07:10:00,
2014-10-02 03:15:00,66.2,43.6,29.82,SSE,155,0.0,-999.0,44,0.00,,,0.00,Wunderground v.1.15,2014-10-02 07:15:00,
2014-10-02 03:20:00,66.1,43.5,29.83,SSE,156,0.0,-999.0,44,0.00,,,0.00,Wunderground v.1.15,2014-10-02 07:20:00,
2014-10-02 03:25:00,66.0,42.9,29.83,South,170,0.0,-999.0,43,0.00,,,0.00,Wunderground v.1.15,2014-10-02 07:25:00,
2014-10-02 03:30:00,65.8,42.1,29.83,South,169,0.0,-999.0,42,0.00,,,0.00,Wunderground v.1.15,2014-10-02 07:30:00,
2014-10-02 03:35:00,65.8,41.4,29.82,South,184,0.0,-999.0,41,0.00,,,0.00,Wunderground v.1.15,2014-10-02 07:35:00,
2014-10-02 03:40:00,65.7,40.7,29.82,South,184,0.0,-999.0,40,0.00,,,0.00,Wunderground v.1.15,2014-10-02 07:40:00,
2014-10-02 03:50:00,65.6,40.0,29.82,South,182,0.0,-999.0,39,0.00,,,0.00,Wunderground v.1.15,2014-10-02 07:50:00,
2014-10-02 03:55:00,65.6,39.3,29.82,SW,226,0.0,-999.0,38,0.00,,,0.00,Wunderground v.1.15,2014-10-02 07:55:00,
2014-10-02 04:00:00,65.6,39.3,29.82,SW,226,0.0,-999.0,38,0.00,,,0.00,Wunderground v.1.15,2014-10-02 08:00:00,
2014-10-02 04:05:00,65.6,39.3,29.82,SW,226,0.0,-999.0,38,0.00,,,0.00,Wunderground v.1.15,2014-10-02 08:05:00,
2014-10-02 04:10:00,65.6,39.3,29.82,SW,226,0.0,-999.0,38,0.00,,,0.00,Wunderground v.1.15,2014-10-02 08:10:00,
2014-10-02 04:20:00,65.6,39.3,29.82,SW,226,0.0,-999.0,38,0.00,,,0.00,Wunderground v.1.15,2014-10-02 08:20:00,
2014-10-02 04:25:00,65.6,40.0,29.82,SW,226,0.0,-999.0,39,0.00,,,0.00,Wunderground v.1.15,2014-10-02 08:25:00,
2014-10-02 04:30:00,65.6,40.0,29.82,SW,226,0.0,-999.0,39,0.00,,,0.00,Wunderground v.1.15,2014-10-02 08:30:00,
2014-10-02 04:35:00,65.3,39.7,29.82,SW,226,0.0,-999.0,39,0.00,,,0.00,Wunderground v.1.15,2014-10-02 08:35:00,
2014-10-02 04:45:00,64.9,36.6,29.82,South,182,0.0,-999.0,35,0.00,,,0.00,Wunderground v.1.15,2014-10-02 08:45:00,
2014-10-02 04:50:00,64.9,35.1,29.82,South,182,0.0,-999.0,33,0.00,,,0.00,Wunderground v.1.15,2014-10-02 08:50:00,
2014-10-02 04:55:00,64.9,35.1,29.82,South,180,0.0,-999.0,33,0.00,,,0.00,Wunderground v.1.15,2014-10-02 08:55:00,
2014-10-02 05:00:00,65.0,35.2,29.82,SSE,160,0.0,-999.0,33,0.00,,,0.00,Wunderground v.1.15,2014-10-02 09:00:00,
2014-10-02 05:05:00,65.1,36.0,29.82,South,169,0.0,-999.0,34,0.00,,,0.00,Wunderground v.1.15,2014-10-02 09:05:00,
2014-10-02 05:10:00,65.0,35.2,29.82,South,169,0.0,-999.0,33,0.00,,,0.00,Wunderground v.1.15,2014-10-02 09:10:00,
2014-10-02 05:15:00,65.0,35.2,29.82,SE,136,0.0,-999.0,33,0.00,,,0.00,Wunderground v.1.15,2014-10-02 09:15:00,
2014-10-02 05:20:00,64.9,34.3,29.82,SSW,211,0.0,-999.0,32,0.00,,,0.00,Wunderground v.1.15,2014-10-02 09:20:00,
2014-10-02 05:25:00,64.8,33.4,29.82,SSE,164,0.0,-999.0,31,0.00,,,0.00,Wunderground v.1.15,2014-10-02 09:25:00,
2014-10-02 05:30:00,64.8,32.6,29.82,SE,136,0.0,-999.0,30,0.00,,,0.00,Wunderground v.1.15,2014-10-02 09:30:00,
2014-10-02 05:35:00,64.7,32.5,29.83,SE,145,0.0,-999.0,30,0.00,,,0.00,Wunderground v.1.15,2014-10-02 09:35:00,
2014-10-02 05:40:00,64.7,31.7,29.83,SE,146,0.0,-999.0,29,0.00,,,0.00,Wunderground v.1.15,2014-10-02 09:40:00,
2014-10-02 05:50:00,64.6,30.7,29.84,SSE,147,0.0,-999.0,28,0.00,,,0.00,Wunderground v.1.15,2014-10-02 09:50:00,
2014-10-02 06:00:00,64.5,29.7,29.84,SSW,211,0.0,-999.0,27,0.00,,,0.00,Wunderground v.1.15,2014-10-02 10:00:00,
2014-10-02 06:05:00,64.5,28.8,29.84,SSW,199,0.0,-999.0,26,0.00,,,0.00,Wunderground v.1.15,2014-10-02 10:05:00,
2014-10-02 06:10:00,64.5,28.8,29.84,South,184,0.0,-999.0,26,0.00,,,0.00,Wunderground v.1.15,2014-10-02 10:10:00,
2014-10-02 06:15:00,64.5,28.8,29.84,South,182,0.0,-999.0,26,0.00,,,0.00,Wunderground v.1.15,2014-10-02 10:15:00,
2014-10-02 06:20:00,64.4,27.8,29.86,SE,141,0.0,-999.0,25,0.00,,,0.00,Wunderground v.1.15,2014-10-02 10:20:00,
2014-10-02 06:25:00,64.4,27.8,29.86,SSE,168,0.0,-999.0,25,0.00,,,0.00,Wunderground v.1.15,2014-10-02 10:25:00,
2014-10-02 06:30:00,64.3,27.7,29.86,SSE,168,0.0,-999.0,25,0.00,,,0.00,Wunderground v.1.15,2014-10-02 10:30:00,
2014-10-02 06:40:00,64.1,24.4,29.86,SSE,162,0.0,-999.0,22,0.00,,,0.00,Wunderground v.1.15,2014-10-02 10:40:00,
2014-10-02 06:45:00,64.1,24.4,29.86,SE,137,0.0,-999.0,22,0.00,,,0.00,Wunderground v.1.15,2014-10-02 10:45:00,
2014-10-02 06:50:00,64.1,24.4,29.86,SSE,156,0.0,-999.0,22,0.00,,,0.00,Wunderground v.1.15,2014-10-02 10:50:00,
2014-10-02 06:55:00,64.2,24.5,29.86,South,173,0.0,-999.0,22,0.00,,,0.00,Wunderground v.1.15,2014-10-02 10:55:00,
2014-10-02 07:00:00,64.3,24.6,29.86,SE,144,0.0,-999.0,22,0.00,,,0.00,Wunderground v.1.15,2014-10-02 11:00:00,
2014-10-02 07:05:00,64.4,23.6,29.86,SSE,167,0.0,-999.0,21,0.00,,,0.00,Wunderground v.1.15,2014-10-02 11:05:00,
2014-10-02 07:10:00,64.6,24.9,29.86,SSE,156,0.0,-999.0,22,0.00,,,0.00,Wunderground v.1.15,2014-10-02 11:10:00,
2014-10-02 07:15:00,64.8,26.1,29.86,South,171,0.0,-999.0,23,0.00,,,0.00,Wunderground v.1.15,2014-10-02 11:15:00,
2014-10-02 07:20:00,64.9,27.2,29.87,SW,214,0.0,-999.0,24,0.00,,,0.00,Wunderground v.1.15,2014-10-02 11:20:00,
2014-10-02 07:25:00,65.1,27.4,29.87,SW,214,0.0,-999.0,24,0.00,,,0.00,Wunderground v.1.15,2014-10-02 11:25:00,
2014-10-02 07:30:00,65.2,28.5,29.87,SSW,203,0.0,-999.0,25,0.00,,,0.00,Wunderground v.1.15,2014-10-02 11:30:00,
2014-10-02 07:40:00,65.4,30.5,29.88,South,178,0.0,-999.0,27,0.00,,,0.00,Wunderground v.1.15,2014-10-02 11:40:00,
2014-10-02 07:45:00,65.6,31.6,29.88,South,169,0.0,-999.0,28,0.00,,,0.00,Wunderground v.1.15,2014-10-02 11:45:00,
2014-10-02 07:50:00,65.8,32.6,29.88,South,172,0.0,-999.0,29,0.00,,,0.00,Wunderground v.1.15,2014-10-02 11:50:00,
2014-10-02 07:55:00,66.0,33.7,29.88,SSW,209,0.0,-999.0,30,0.00,,,0.00,Wunderground v.1.15,2014-10-02 11:55:00,
2014-10-02 08:00:00,66.2,34.7,29.88,SSE,161,0.0,-999.0,31,0.00,,,0.00,Wunderground v.1.15,2014-10-02 12:00:00,
2014-10-02 08:05:00,66.4,35.6,29.89,SSW,196,0.0,-999.0,32,0.00,,,0.00,Wunderground v.1.15,2014-10-02 12:05:00,
2014-10-02 08:15:00,66.8,38.3,29.89,SSE,162,0.0,-999.0,35,0.00,,,0.00,Wunderground v.1.15,2014-10-02 12:15:00,
2014-10-02 08:20:00,67.0,39.1,29.89,South,189,0.0,-999.0,36,0.00,,,0.00,Wunderground v.1.15,2014-10-02 12:20:00,
2014-10-02 08:25:00,67.2,40.0,29.89,South,182,0.0,-999.0,37,0.00,,,0.00,Wunderground v.1.15,2014-10-02 12:25:00,
2014-10-02 08:35:00,67.5,41.0,29.89,SSW,207,0.0,-999.0,38,0.00,,,0.00,Wunderground v.1.15,2014-10-02 12:35:00,
2014-10-02 08:40:00,67.7,41.2,29.89,South,191,0.0,-999.0,38,0.00,,,0.00,Wunderground v.1.15,2014-10-02 12:40:00,
2014-10-02 08:50:00,68.0,42.8,29.89,SSW,209,0.0,-999.0,40,0.00,,,0.00,Wunderground v.1.15,2014-10-02 12:50:00,
2014-10-02 08:55:00,68.3,43.0,29.89,SSE,164,0.0,-999.0,40,0.00,,,0.00,Wunderground v.1.15,2014-10-02 12:55:00,
2014-10-02 09:00:00,68.6,43.9,29.89,South,177,0.0,-999.0,41,0.00,,,0.00,Wunderground v.1.15,2014-10-02 13:00:00,
2014-10-02 09:05:00,68.8,46.0,29.89,SW,226,0.0,-999.0,44,0.00,,,0.00,Wunderground v.1.15,2014-10-02 13:05:00,
2014-10-02 09:10:00,69.0,47.4,29.89,SW,220,1.0,-999.0,46,0.00,,,0.00,Wunderground v.1.15,2014-10-02 13:10:00,
2014-10-02 09:15:00,69.4,47.1,29.89,SSW,213,0.0,-999.0,45,0.00,,,0.00,Wunderground v.1.15,2014-10-02 13:15:00,
2014-10-02 09:25:00,70.3,50.8,29.90,SW,223,1.0,-999.0,50,0.00,,,0.00,Wunderground v.1.15,2014-10-02 13:25:00,
2014-10-02 09:30:00,70.4,51.4,29.90,SE,146,1.0,-999.0,51,0.00,,,0.00,Wunderground v.1.15,2014-10-02 13:30:00,
2014-10-02 09:35:00,70.6,51.6,29.90,SSW,200,1.0,-999.0,51,0.00,,,0.00,Wunderground v.1.15,2014-10-02 13:35:00,
2014-10-02 09:40:00,70.8,51.8,29.90,SSW,209,1.0,-999.0,51,0.00,,,0.00,Wunderground v.1.15,2014-10-02 13:40:00,
2014-10-02 09:50:00,71.3,52.2,29.90,SW,235,1.0,-999.0,51,0.00,,,0.00,Wunderground v.1.15,2014-10-02 13:50:00,
2014-10-02 10:00:00,71.9,53.8,29.90,SW,236,0.0,-999.0,53,0.00,,,0.00,Wunderground v.1.15,2014-10-02 14:00:00,
2014-10-02 10:05:00,72.1,53.5,29.90,SW,216,1.0,-999.0,52,0.00,,,0.00,Wunderground v.1.15,2014-10-02 14:05:00,
2014-10-02 10:10:00,72.3,53.7,29.90,South,172,1.0,-999.0,52,0.00,,,0.00,Wunderground v.1.15,2014-10-02 14:10:00,
2014-10-02 10:15:00,72.6,54.0,29.90,South,171,1.0,-999.0,52,0.00,,,0.00,Wunderground v.1.15,2014-10-02 14:15:00,
2014-10-02 10:20:00,72.7,54.6,29.90,SW,225,1.0,-999.0,53,0.00,,,0.00,Wunderground v.1.15,2014-10-02 14:20:00,
2014-10-02 10:25:00,72.8,54.7,29.90,SW,218,1.0,-999.0,53,0.00,,,0.00,Wunderground v.1.15,2014-10-02 14:25:00,
2014-10-02 10:30:00,73.7,55.5,29.90,WSW,238,1.0,-999.0,53,0.00,,,0.00,Wunderground v.1.15,2014-10-02 14:30:00,
2014-10-02 10:35:00,75.1,58.8,29.89,West,259,1.0,-999.0,57,0.00,,,0.00,Wunderground v.1.15,2014-10-02 14:35:00,
2014-10-02 10:40:00,76.0,60.2,29.89,South,188,1.0,-999.0,58,0.00,,,0.00,Wunderground v.1.15,2014-10-02 14:40:00,
2014-10-02 10:50:00,77.3,63.3,29.89,SW,227,1.0,-999.0,62,0.00,,,0.00,Wunderground v.1.15,2014-10-02 14:50:00,
2014-10-02 10:55:00,77.8,63.3,29.89,South,188,1.0,-999.0,61,0.00,,,0.00,Wunderground v.1.15,2014-10-02 14:55:00,
2014-10-02 11:00:00,78.7,64.6,29.89,West,268,2.0,-999.0,62,0.00,,,0.00,Wunderground v.1.15,2014-10-02 15:00:00,
2014-10-02 11:10:00,79.1,65.4,29.88,SW,214,3.0,-999.0,63,0.00,,,0.00,Wunderground v.1.15,2014-10-02 15:10:00,
2014-10-02 11:15:00,79.6,65.9,29.88,SSW,205,2.0,-999.0,63,0.00,,,0.00,Wunderground v.1.15,2014-10-02 15:15:00,
2014-10-02 11:20:00,80.2,66.5,29.88,SSW,213,1.0,-999.0,63,0.00,,,0.00,Wunderground v.1.15,2014-10-02 15:20:00,
2014-10-02 11:25:00,80.7,67.4,29.88,SSW,203,2.0,-999.0,64,0.00,,,0.00,Wunderground v.1.15,2014-10-02 15:25:00,
2014-10-02 11:30:00,80.9,67.6,29.88,SSW,195,3.0,-999.0,64,0.00,,,0.00,Wunderground v.1.15,2014-10-02 15:30:00,
2014-10-02 11:40:00,81.8,68.4,29.88,SSW,211,3.0,-999.0,64,0.00,,,0.00,Wunderground v.1.15,2014-10-02 15:40:00,
2014-10-02 11:45:00,82.4,69.0,29.88,SW,214,2.0,-999.0,64,0.00,,,0.00,Wunderground v.1.15,2014-10-02 15:45:00,
2014-10-02 11:50:00,83.1,69.7,29.87,West,266,1.0,-999.0,64,0.00,,,0.00,Wunderground v.1.15,2014-10-02 15:50:00,
2014-10-02 11:55:00,83.6,70.1,29.87,SW,226,2.0,-999.0,64,0.00,,,0.00,Wunderground v.1.15,2014-10-02 15:55:00,
2014-10-02 12:05:00,83.7,70.2,29.86,WSW,248,3.0,-999.0,64,0.00,,,0.00,Wunderground v.1.15,2014-10-02 16:05:00,
2014-10-02 12:15:00,83.3,70.3,29.86,WSW,240,2.0,-999.0,65,0.00,,,0.00,Wunderground v.1.15,2014-10-02 16:15:00,
2014-10-02 12:20:00,83.6,70.1,29.86,South,184,2.0,-999.0,64,0.00,,,0.00,Wunderground v.1.15,2014-10-02 16:20:00,
2014-10-02 12:25:00,84.2,70.7,29.86,SW,227,3.0,-999.0,64,0.00,,,0.00,Wunderground v.1.15,2014-10-02 16:25:00,
2014-10-02 12:30:00,84.6,70.6,29.86,WSW,251,3.0,-999.0,63,0.00,,,0.00,Wunderground v.1.15,2014-10-02 16:30:00,
2014-10-02 12:35:00,84.8,71.3,29.86,SSW,208,4.0,-999.0,64,0.00,,,0.00,Wunderground v.1.15,2014-10-02 16:35:00,